AB8KN-2 Weather Reports


Display with metric or nautical units.
time (UTC)temp
F
wind
direction
speed
MPH
gust
MPH
rain 1hr
in
rain 24hr
in
rain mn
in
humidity
%
barometer
mb
20260510171016 66 228 2.0 5.0 0.00 0.01 0.01 42 1017.1
20260510170032 67 227 2.0 2.0 0.00 0.01 0.01 39 1017.2
20260510165114 66 228 2.0 5.0 0.00 0.01 0.01 41 1017.2
20260510164055 66 228 2.0 4.0 0.00 0.01 0.01 44 1017.4
20260510163017 66 228 2.0 6.0 0.00 0.01 0.01 43 1017.4
20260510162017 66 228 2.0 5.0 0.00 0.01 0.01 41 1017.4
20260510161018 66 227 2.0 4.0 0.00 0.01 0.01 42 1017.4
20260510160017 66 229 2.0 5.0 0.00 0.01 0.01 43 1017.4
20260510155058 65 253 2.0 5.0 0.00 0.01 0.01 43 1017.2
20260510154018 65 197 1.0 5.0 0.00 0.01 0.01 45 1016.9
20260510153017 65 155 2.0 5.0 0.00 0.01 0.01 45 1017.1
20260510152018 65 82 4.0 7.0 0.00 0.01 0.01 45 1016.8
20260510151015 65 293 1.0 4.0 0.00 0.01 0.01 45 1016.9
20260510150016 64 216 2.0 4.0 0.00 0.01 0.01 45 1016.6
20260510145016 63 233 2.0 6.0 0.00 0.01 0.01 47 1016.6
20260510144016 63 170 2.0 10.0 0.00 0.01 0.01 47 1016.5
20260510143016 62 217 2.0 5.0 0.00 0.01 0.01 47 1016.2
20260510142036 62 190 2.0 6.0 0.00 0.01 0.01 48 1016.1
20260510141016 62 190 2.0 4.0 0.00 0.01 0.01 48 1016.1
20260510140017 61 187 3.0 5.0 0.00 0.01 0.01 49 1016.0
20260510135017 61 191 2.0 7.0 0.00 0.01 0.01 49 1015.8
20260510134037 60 207 2.0 5.0 0.00 0.01 0.01 50 1016.1
20260510133017 58 171 2.0 4.0 0.00 0.01 0.01 54 1015.9
20260510132017 57 199 1.0 4.0 0.00 0.01 0.01 57 1015.1
20260510131017 57 202 1.0 3.0 0.00 0.01 0.01 60 1015.3
20260510130018 56 201 1.0 2.0 0.00 0.01 0.01 62 1015.1
20260510125038 56 194 1.0 2.0 0.00 0.01 0.01 64 1015.1
20260510124015 55 195 1.0 3.0 0.00 0.01 0.01 66 1014.9
20260510123016 55 195 1.0 3.0 0.00 0.01 0.01 67 1014.4
20260510122016 55 205 1.0 3.0 0.00 0.01 0.01 68 1014.2
20260510121017 55 190 1.0 2.0 0.00 0.01 0.01 68 1014.3
20260510120016 55 174 1.0 4.0 0.00 0.02 0.01 69 1014.1
20260510115016 55 209 1.0 2.0 0.00 0.02 0.01 68 1014.0
20260510114037 55 202 0.0 2.0 0.00 0.02 0.01 68 1013.9
20260510113016 55 191 1.0 2.0 0.00 0.02 0.01 69 1013.5
20260510112037 55 201 1.0 2.0 0.00 0.02 0.01 68 1013.5
20260510111017 55 209 1.0 3.0 0.00 0.02 0.01 68 1013.2
20260510110017 55 193 1.0 2.0 0.00 0.02 0.01 67 1012.9
20260510105057 55 211 1.0 2.0 0.00 0.02 0.01 66 1013.1
20260510104018 55 199 1.0 3.0 0.00 0.02 0.01 65 1012.9
20260510103017 56 216 1.0 3.0 0.00 0.02 0.01 65 1012.4
20260510102018 56 224 1.0 3.0 0.00 0.03 0.01 65 1012.3
20260510101018 56 224 1.0 5.0 0.00 0.03 0.01 65 1012.3
20260510100135 57 221 1.0 3.0 0.00 0.04 0.01 66 1012.0
20260510095016 57 206 1.0 3.0 0.00 0.05 0.01 67 1012.0
20260510094015 57 204 1.0 2.0 0.00 0.06 0.01 67 1011.8
20260510093015 57 232 1.0 3.0 0.00 0.07 0.01 68 1011.6
20260510092016 58 230 1.0 3.0 0.00 0.08 0.01 67 1011.5
20260510091016 58 223 1.0 3.0 0.00 0.09 0.01 69 1011.3
20260510090016 58 216 1.0 3.0 0.00 0.09 0.01 69 1011.0
20260510085017 59 216 1.0 3.0 0.00 0.09 0.01 69 1010.8
20260510084036 59 228 2.0 6.0 0.00 0.09 0.01 70 1010.6
20260510083016 59 225 1.0 3.0 0.00 0.09 0.01 71 1010.4
20260510082017 59 238 2.0 4.0 0.00 0.09 0.01 74 1010.4
20260510081017 59 228 2.0 4.0 0.00 0.09 0.01 74 1010.1
20260510080017 59 237 2.0 5.0 0.00 0.10 0.01 74 1010.0
20260510075017 59 238 2.0 3.0 0.00 0.11 0.01 74 1010.1
20260510074018 60 221 1.0 3.0 0.00 0.12 0.01 73 1009.9
20260510073017 60 249 2.0 5.0 0.00 0.13 0.01 72 1010.2
20260510072017 61 249 1.0 4.0 0.00 0.14 0.01 70 1010.3
20260510071018 61 223 1.0 3.0 0.00 0.15 0.01 70 1010.2
20260510070018 61 236 1.0 4.0 0.00 0.16 0.01 69 1010.0
20260510065015 61 238 1.0 3.0 0.00 0.17 0.01 69 1010.1
20260510064016 61 218 1.0 4.0 0.00 0.17 0.01 69 1010.0
20260510063056 61 208 1.0 4.0 0.01 0.19 0.01 70 1009.9
20260510062016 62 213 1.0 4.0 0.01 0.20 0.01 68 1009.8
20260510061016 62 222 1.0 6.0 0.01 0.21 0.01 69 1009.8
20260510060016 62 247 2.0 7.0 0.01 0.21 0.01 70 1010.1
20260510055016 63 245 2.0 6.0 0.01 0.21 0.01 73 1010.3
20260510054017 63 258 3.0 9.0 0.00 0.21 0.00 70 1010.4
20260510053016 63 257 3.0 10.0 0.00 0.21 0.00 67 1010.4
20260510052017 63 232 2.0 7.0 0.00 0.21 0.00 68 1010.2
20260510051017 63 220 1.0 4.0 0.00 0.21 0.00 68 1010.1
20260510050017 63 202 1.0 4.0 0.00 0.21 0.00 68 1009.9
20260510045017 63 193 1.0 4.0 0.00 0.21 0.00 67 1009.8
20260510044017 63 187 1.0 4.0 0.00 0.21 0.00 67 1009.7
20260510043015 63 191 1.0 5.0 0.00 0.22 0.00 67 1009.6
20260510042016 63 187 1.0 4.0 0.00 0.22 0.00 68 1009.5
20260510041016 63 195 2.0 5.0 0.00 0.23 0.00 68 1009.4
20260510040016 63 198 2.0 5.0 0.00 0.23 0.00 67 1009.1
20260510035015 63 179 2.0 5.0 0.00 0.23 0.23 67 1009.1
20260510034016 63 173 2.0 6.0 0.00 0.23 0.23 67 1009.0
20260510033016 64 175 2.0 7.0 0.00 0.23 0.23 66 1009.1
20260510032016 63 180 1.0 4.0 0.00 0.23 0.23 66 1009.1
20260510031016 63 186 1.0 4.0 0.00 0.23 0.23 67 1008.9
20260510030016 63 192 1.0 4.0 0.00 0.23 0.23 67 1008.9
20260510025016 63 190 1.0 5.0 0.00 0.23 0.23 66 1008.8
20260510024016 64 175 1.0 3.0 0.00 0.23 0.23 66 1008.8
20260510023017 64 189 1.0 4.0 0.00 0.23 0.23 65 1008.7
20260510022017 64 191 1.0 5.0 0.00 0.23 0.23 64 1008.6
20260510021037 65 200 2.0 6.0 0.00 0.23 0.23 64 1008.4
20260510020017 65 198 2.0 6.0 0.00 0.23 0.23 63 1008.3
20260510015018 65 201 2.0 5.0 0.00 0.23 0.23 64 1008.2
20260510014017 65 205 2.0 7.0 0.00 0.23 0.23 63 1008.0
20260510013017 65 173 2.0 8.0 0.00 0.23 0.23 63 1007.8
20260510012018 66 154 1.0 6.0 0.00 0.23 0.23 62 1007.8
20260510011018 66 134 1.0 4.0 0.00 0.23 0.23 61 1007.5
20260510010015 67 110 1.0 3.0 0.00 0.23 0.23 61 1007.5
20260510005016 67 97 1.0 2.0 0.00 0.24 0.23 59 1007.4
20260510004018 68 78 1.0 3.0 0.00 0.24 0.23 57 1007.3
20260510003015 69 110 1.0 3.0 0.00 0.24 0.23 56 1007.3
20260510002016 69 184 1.0 4.0 0.00 0.24 0.23 54 1007.2
20260510001016 70 188 2.0 7.0 0.00 0.24 0.23 53 1007.1
20260510000016 71 131 1.0 8.0 0.00 0.25 0.23 52 1007.0
20260509235037 71 151 1.0 5.0 0.00 0.25 0.23 51 1006.9
20260509234016 71 155 1.0 4.0 0.00 0.25 0.23 50 1006.9
20260509233017 71 183 2.0 6.0 0.00 0.25 0.23 50 1006.9
20260509232017 72 187 3.0 7.0 0.00 0.25 0.23 48 1006.8
20260509231017 72 177 2.0 7.0 0.00 0.25 0.23 47 1006.9
20260509230017 73 166 2.0 6.0 0.00 0.25 0.23 47 1006.8
20260509225017 73 175 3.0 7.0 0.00 0.25 0.23 47 1006.9
20260509224017 73 178 3.0 7.0 0.00 0.25 0.23 47 1006.9
20260509223017 73 219 3.0 8.0 0.00 0.25 0.23 49 1006.9
20260509222018 72 160 3.0 7.0 0.00 0.25 0.23 49 1006.8
20260509221018 73 164 3.0 8.0 0.00 0.25 0.23 50 1006.8
20260509220015 73 161 2.0 8.0 0.00 0.25 0.23 51 1006.8
20260509215035 73 183 3.0 9.0 0.00 0.25 0.23 50 1006.9
20260509214016 74 168 2.0 7.0 0.00 0.25 0.23 50 1007.1
20260509213016 73 156 2.0 7.0 0.00 0.25 0.23 50 1007.2
20260509212016 74 178 3.0 11.0 0.00 0.25 0.23 49 1007.3
20260509211016 74 153 2.0 5.0 0.00 0.25 0.23 50 1007.4
20260509210036 73 146 2.0 6.0 0.00 0.25 0.23 51 1007.3
20260509205016 73 176 3.0 9.0 0.00 0.25 0.23 50 1007.5
20260509204016 73 186 3.0 8.0 0.00 0.25 0.23 51 1007.5
20260509203017 73 211 2.0 7.0 0.00 0.25 0.23 51 1007.6
20260509202017 73 169 3.0 8.0 0.00 0.25 0.23 52 1007.7
20260509201017 71 175 2.0 6.0 0.00 0.25 0.23 54 1007.8
20260509200017 71 155 3.0 7.0 0.00 0.25 0.23 54 1007.7
20260509195017 71 150 2.0 9.0 0.00 0.25 0.23 55 1007.8
20260509194018 72 182 2.0 8.0 0.00 0.25 0.23 54 1008.1
20260509193018 71 177 3.0 7.0 0.00 0.25 0.23 53 1008.2
20260509192018 71 138 3.0 7.0 0.00 0.25 0.23 57 1008.3
20260509191018 71 150 3.0 9.0 0.00 0.25 0.23 56 1008.1
20260509190015 70 177 2.0 6.0 0.00 0.25 0.23 55 1008.5
20260509185036 70 150 2.0 7.0 0.00 0.25 0.23 56 1008.5
20260509184036 70 172 2.0 7.0 0.00 0.25 0.23 55 1008.6
20260509183016 70 178 3.0 7.0 0.00 0.25 0.23 56 1008.8
20260509182036 70 164 3.0 8.0 0.00 0.25 0.23 56 1008.8
20260509181016 70 159 2.0 8.0 0.00 0.25 0.23 57 1008.9
20260509180016 69 178 2.0 6.0 0.00 0.25 0.23 58 1009.2
20260509175017 68 165 2.0 10.0 0.00 0.25 0.23 60 1009.0
20260509174017 67 179 3.0 8.0 0.00 0.25 0.23 60 1009.2
20260509173018 67 187 3.0 9.0 0.00 0.25 0.23 62 1009.0
20260509172017 67 155 2.0 6.0 0.00 0.25 0.23 62 1009.0